Santa Fe, NM

11:26 AM MDT on July 22, 2017 (GMT -0600)
Santa Fe Municipal

Weather History for KSAF - February, 2013

Change the Weather History Date:

Friday, February 22, 2013

  Actual Average Record
Temperature  
Mean Temperature 30 °F -  
Max Temperature 39 °F 0 °F 61 °F (2009)
Min Temperature 19 °F - 14 °F (2015)
Degree Days  
Heating Degree Days 35    
Moisture  
Dew Point 20 °F    
Average Humidity 68    
Maximum Humidity 89    
Minimum Humidity 39    
Precipitation  
Precipitation 0.00 in - - ()
Sea Level Pressure  
Sea Level Pressure 29.89 in    
Wind  
Wind Speed 7 mph (WSW)    
Max Wind Speed 18 mph    
Max Gust Speed 28 mph    
Visibility 9 miles    
Events Snow    
Averages and records for this station are not official NWS values.
T = Trace of Precipitation, MM = Missing Value Source: NWS Daily Summary

Daily Weather History Graph

Daily Weather History Graph

Search for Another Location

Airport or City:

Trip Planner

Search our weather history database for the weather conditions in past years. The results will help you decide how hot, cold, wet, or windy it might be!

Date:

Astronomy

Feb. 22, 2013 Rise Set
Actual Time 6:42 AM MST 5:53 PM MST
Civil Twilight 6:16 AM MST 6:19 PM MST
Nautical Twilight 5:47 AM MST 6:48 PM MST
Astronomical Twilight 5:17 AM MST 7:18 PM MST
Moon 3:11 PM MST 4:25 AM MST
Length of Visible Light 12h 02m
Length of Day
11h 10m
Waxing Gibbous, 90% of the Moon is Illuminated
Feb 22
Waxing Gibbous
Feb 25
Full
Mar 4
Last Quarter
Mar 11
New
Mar 19
First Quarter

Hourly Weather History & Observations

Time (MST) Temp. Windchill Dew Point Humidity Pressure Visibility Wind Dir Wind Speed Gust Speed Precip Events Conditions
12:53 AM 21.9 °F 15.7 °F 18.0 °F 85% 29.83 in 10.0 mi SE 4.6 mph - N/A   Clear
1:53 AM 23.0 °F 18.4 °F 18.0 °F 81% 29.82 in 10.0 mi SW 3.5 mph - N/A   Mostly Cloudy
2:53 AM 25.0 °F - 19.0 °F 78% 29.81 in 10.0 mi Calm Calm - N/A   Overcast
3:53 AM 24.1 °F - 18.0 °F 77% 29.82 in 10.0 mi Calm Calm - N/A   Mostly Cloudy
4:53 AM 23.0 °F - 18.0 °F 81% 29.85 in 10.0 mi Calm Calm - N/A   Scattered Clouds
5:53 AM 24.1 °F 19.7 °F 19.9 °F 84% 29.87 in 10.0 mi East 3.5 mph - N/A   Overcast
6:53 AM 24.1 °F 18.2 °F 21.0 °F 88% 29.89 in 3.0 mi SW 4.6 mph - 0.00 in Snow Light Snow
7:00 AM 24.8 °F 19.1 °F 21.2 °F 86% 29.88 in 2.0 mi SW 4.6 mph - 0.00 in Snow Light Snow
7:13 AM 24.8 °F 17.9 °F 21.2 °F 86% 29.88 in 4.0 mi SW 5.8 mph - 0.00 in Snow Light Snow
7:44 AM 26.6 °F 21.2 °F 23.0 °F 86% 29.89 in 10.0 mi WSW 4.6 mph - 0.00 in   Overcast
7:53 AM 27.0 °F 19.5 °F 24.1 °F 89% 29.91 in 10.0 mi WSW 6.9 mph - 0.00 in   Overcast
8:53 AM 28.0 °F 18.1 °F 23.0 °F 81% 29.94 in 10.0 mi WSW 11.5 mph - N/A   Mostly Cloudy
9:53 AM 34.0 °F 25.5 °F 21.9 °F 61% 29.90 in 10.0 mi WSW 11.5 mph 19.6 mph N/A   Scattered Clouds
10:26 AM 35.6 °F 28.0 °F 21.2 °F 56% 29.91 in 10.0 mi SW 10.4 mph - N/A   Mostly Cloudy
10:53 AM 37.0 °F 28.5 °F 21.9 °F 54% 29.89 in 10.0 mi WSW 13.8 mph 19.6 mph N/A   Mostly Cloudy
11:53 AM 37.0 °F 27.0 °F 19.9 °F 50% 29.88 in 10.0 mi SW 18.4 mph 26.5 mph N/A   Overcast
12:53 PM 39.0 °F 30.6 °F 18.0 °F 43% 29.86 in 10.0 mi SW 15.0 mph 24.2 mph N/A   Scattered Clouds
1:53 PM 37.9 °F 28.2 °F 19.0 °F 47% 29.86 in 10.0 mi SW 18.4 mph 27.6 mph N/A   Partly Cloudy
2:22 PM 33.8 °F 23.5 °F 21.2 °F 60% 29.87 in 1.8 mi West 16.1 mph 27.6 mph 0.00 in Snow Light Snow
2:35 PM 35.6 °F 25.9 °F 26.6 °F 70% 29.87 in 2.0 mi WSW 16.1 mph 21.9 mph 0.00 in Snow Light Snow
2:42 PM 35.6 °F 25.2 °F 23.0 °F 60% 29.87 in 9.0 mi SW 18.4 mph 25.3 mph 0.00 in   Overcast
2:49 PM 35.6 °F 26.6 °F 24.8 °F 65% 29.87 in 10.0 mi SW 13.8 mph 23.0 mph 0.00 in   Mostly Cloudy
2:53 PM 35.1 °F 25.9 °F 24.1 °F 64% 29.87 in 10.0 mi SW 13.8 mph 23.0 mph 0.00 in   Scattered Clouds
3:53 PM 34.0 °F 24.2 °F 21.9 °F 61% 29.87 in 8.0 mi WSW 15.0 mph 23.0 mph 0.00 in Snow Light Snow
4:53 PM 36.0 °F 27.1 °F 12.9 °F 39% 29.86 in 10.0 mi West 13.8 mph - 0.00 in   Mostly Cloudy
5:53 PM 33.1 °F 23.0 °F 12.0 °F 42% 29.88 in 10.0 mi West 15.0 mph 21.9 mph N/A   Overcast
6:53 PM 32.0 °F 21.2 °F 15.1 °F 50% 29.92 in 10.0 mi NW 16.1 mph - N/A   Overcast
7:53 PM 30.0 °F 21.1 °F 15.1 °F 54% 29.94 in 10.0 mi WNW 10.4 mph - N/A   Overcast
8:53 PM 28.0 °F 22.8 °F 19.0 °F 69% 29.98 in 10.0 mi North 4.6 mph - N/A   Overcast
9:53 PM 26.1 °F - 17.1 °F 69% 29.97 in 10.0 mi Calm Calm - N/A   Mostly Cloudy
10:53 PM 23.0 °F 14.7 °F 16.0 °F 74% 29.96 in 10.0 mi WNW 6.9 mph - N/A   Mostly Cloudy
11:53 PM 19.0 °F 11.1 °F 10.9 °F 71% 29.98 in 10.0 mi WNW 5.8 mph - N/A   Clear